Time,TemperatureF,DewpointF,PressureIn,WindDirection,WindDirectionDegrees,WindSpeedMPH,WindSpeedGustMPH,Humidity,HourlyPrecipIn,Conditions,Clouds,dailyrainin,SoftwareType,DateUTC
2013-02-23 00:00:00,31.3,24.3,30.46,SW,217,19.0,24.0,75,0.00,,,0.00,meteohub,2013-02-23 05:00:00,
2013-02-23 00:05:00,31.3,24.3,30.45,SSE,167,17.0,27.0,75,0.00,,,0.00,meteohub,2013-02-23 05:05:00,
2013-02-23 00:11:00,31.3,24.3,30.45,SE,140,20.0,27.0,75,0.00,,,0.00,meteohub,2013-02-23 05:11:00,
2013-02-23 00:16:00,31.3,24.6,30.45,South,184,20.0,26.0,76,0.00,,,0.00,meteohub,2013-02-23 05:16:00,
2013-02-23 00:21:00,31.3,24.6,30.44,SSW,197,20.0,26.0,76,0.00,,,0.00,meteohub,2013-02-23 05:21:00,
2013-02-23 00:26:00,31.3,24.6,30.44,SSW,203,12.0,27.0,76,0.00,,,0.00,meteohub,2013-02-23 05:26:00,
2013-02-23 00:31:00,31.3,24.6,30.44,South,179,16.0,27.0,76,0.00,,,0.00,meteohub,2013-02-23 05:31:00,
2013-02-23 00:36:00,31.3,24.6,30.43,SSE,163,14.0,29.0,76,0.00,,,0.00,meteohub,2013-02-23 05:36:00,
2013-02-23 00:41:00,31.3,24.6,30.43,SSW,210,15.0,29.0,76,0.00,,,0.00,meteohub,2013-02-23 05:41:00,
2013-02-23 00:46:00,31.5,24.8,30.43,South,185,23.0,29.0,76,0.00,,,0.00,meteohub,2013-02-23 05:46:00,
2013-02-23 00:51:00,31.5,24.8,30.44,SSE,160,14.0,25.0,76,0.00,,,0.00,meteohub,2013-02-23 05:51:00,
2013-02-23 00:57:00,31.5,24.8,30.44,SSE,162,17.0,30.0,76,0.00,,,0.00,meteohub,2013-02-23 05:57:00,
2013-02-23 01:02:00,31.5,24.8,30.44,SSW,195,11.0,30.0,76,0.00,,,0.00,meteohub,2013-02-23 06:02:00,
2013-02-23 01:07:00,31.5,24.8,30.44,SSW,208,10.0,30.0,76,0.00,,,0.00,meteohub,2013-02-23 06:07:00,
2013-02-23 01:12:00,31.5,24.8,30.44,South,171,23.0,28.0,76,0.00,,,0.00,meteohub,2013-02-23 06:12:00,
2013-02-23 01:20:00,31.6,25.0,30.44,SE,138,24.0,31.0,76,0.00,,,0.00,meteohub,2013-02-23 06:20:00,
2013-02-23 01:25:00,31.6,25.0,30.43,SSE,160,18.0,31.0,76,0.00,,,0.00,meteohub,2013-02-23 06:25:00,
2013-02-23 01:30:00,31.6,25.0,30.42,SSE,153,16.0,31.0,76,0.00,,,0.00,meteohub,2013-02-23 06:30:00,
2013-02-23 01:35:00,31.6,25.0,30.42,ESE,120,25.0,29.0,76,0.00,,,0.00,meteohub,2013-02-23 06:35:00,
2013-02-23 01:40:00,31.6,25.0,30.42,SSE,148,13.0,32.0,76,0.00,,,0.00,meteohub,2013-02-23 06:40:00,
2013-02-23 01:45:00,31.6,25.0,30.42,SSW,193,16.0,32.0,76,0.00,,,0.00,meteohub,2013-02-23 06:45:00,
2013-02-23 01:50:00,31.6,25.0,30.42,SE,137,11.0,32.0,76,0.00,,,0.00,meteohub,2013-02-23 06:50:00,
2013-02-23 01:55:00,31.6,25.0,30.42,South,191,14.0,26.0,76,0.00,,,0.00,meteohub,2013-02-23 06:55:00,
2013-02-23 02:00:00,31.6,25.0,30.42,SSE,154,11.0,28.0,76,0.00,,,0.00,meteohub,2013-02-23 07:00:00,
2013-02-23 02:05:00,31.6,25.0,30.42,South,177,11.0,28.0,76,0.00,,,0.00,meteohub,2013-02-23 07:05:00,
2013-02-23 02:10:00,31.6,25.3,30.42,South,170,10.0,28.0,77,0.00,,,0.00,meteohub,2013-02-23 07:10:00,
2013-02-23 02:16:00,31.6,25.3,30.42,South,176,12.0,21.0,77,0.00,,,0.00,meteohub,2013-02-23 07:16:00,
2013-02-23 02:21:00,31.6,25.3,30.41,South,191,9.0,20.0,77,0.00,,,0.00,meteohub,2013-02-23 07:21:00,
2013-02-23 02:26:00,31.6,25.3,30.41,ESE,113,16.0,20.0,77,0.00,,,0.00,meteohub,2013-02-23 07:26:00,
2013-02-23 02:31:00,31.6,25.3,30.40,ESE,115,12.0,24.0,77,0.00,,,0.00,meteohub,2013-02-23 07:31:00,
2013-02-23 02:36:00,31.6,25.3,30.40,SSW,194,15.0,24.0,77,0.00,,,0.00,meteohub,2013-02-23 07:36:00,
2013-02-23 02:41:00,31.6,25.3,30.40,South,174,9.0,24.0,77,0.00,,,0.00,meteohub,2013-02-23 07:41:00,
2013-02-23 02:46:00,31.6,25.5,30.40,South,172,16.0,23.0,78,0.00,,,0.00,meteohub,2013-02-23 07:46:00,
2013-02-23 02:51:00,31.6,25.5,30.40,SSE,163,22.0,23.0,78,0.00,,,0.00,meteohub,2013-02-23 07:51:00,
2013-02-23 02:56:00,31.6,25.5,30.40,WSW,238,13.0,27.0,78,0.00,,,0.00,meteohub,2013-02-23 07:56:00,
2013-02-23 03:01:00,31.6,25.5,30.40,SSW,197,11.0,27.0,78,0.00,,,0.00,meteohub,2013-02-23 08:01:00,
2013-02-23 03:06:00,31.6,25.5,30.39,South,187,10.0,27.0,78,0.00,,,0.00,meteohub,2013-02-23 08:06:00,
2013-02-23 03:12:00,31.6,25.9,30.39,SSW,200,11.0,26.0,79,0.00,,,0.00,meteohub,2013-02-23 08:12:00,
2013-02-23 03:17:00,31.8,26.1,30.39,SE,131,13.0,26.0,79,0.00,,,0.00,meteohub,2013-02-23 08:17:00,
2013-02-23 03:22:00,31.8,26.1,30.39,SSE,153,14.0,30.0,79,0.00,,,0.00,meteohub,2013-02-23 08:22:00,
2013-02-23 03:27:00,31.8,26.1,30.39,East,101,24.0,30.0,79,0.00,,,0.00,meteohub,2013-02-23 08:27:00,
2013-02-23 03:32:00,31.8,26.1,30.38,South,179,15.0,30.0,79,0.00,,,0.00,meteohub,2013-02-23 08:32:00,
2013-02-23 03:37:00,31.6,26.2,30.39,SSW,204,8.0,25.0,80,0.00,,,0.00,meteohub,2013-02-23 08:37:00,
2013-02-23 03:42:00,31.6,26.2,30.38,ESE,122,10.0,25.0,80,0.00,,,0.00,meteohub,2013-02-23 08:42:00,
2013-02-23 03:47:00,31.6,26.2,30.38,SSE,158,20.0,25.0,80,0.00,,,0.00,meteohub,2013-02-23 08:47:00,
2013-02-23 03:52:00,31.6,26.2,30.38,SSE,152,13.0,25.0,80,0.00,,,0.00,meteohub,2013-02-23 08:52:00,
2013-02-23 03:57:00,31.8,26.4,30.38,SSW,200,12.0,24.0,80,0.00,,,0.00,meteohub,2013-02-23 08:57:00,
2013-02-23 04:02:00,31.6,26.4,30.38,SSW,208,13.0,26.0,81,0.00,,,0.00,meteohub,2013-02-23 09:02:00,
2013-02-23 04:07:00,31.8,26.6,30.38,SSW,200,19.0,26.0,81,0.00,,,0.00,meteohub,2013-02-23 09:07:00,
2013-02-23 04:12:00,31.8,26.6,30.38,ESE,115,17.0,27.0,81,0.00,,,0.00,meteohub,2013-02-23 09:12:00,
2013-02-23 04:17:00,31.8,26.6,30.38,SSW,204,19.0,27.0,81,0.00,,,0.00,meteohub,2013-02-23 09:17:00,
2013-02-23 04:22:00,31.8,27.0,30.38,SE,134,13.0,26.0,82,0.00,,,0.00,meteohub,2013-02-23 09:22:00,
2013-02-23 04:27:00,31.8,27.0,30.38,South,173,15.0,26.0,82,0.00,,,0.00,meteohub,2013-02-23 09:27:00,
2013-02-23 04:32:00,31.8,27.3,30.37,SSE,162,10.0,26.0,83,0.00,,,0.00,meteohub,2013-02-23 09:32:00,
2013-02-23 04:37:00,31.6,27.1,30.38,SE,143,16.0,23.0,83,0.00,,,0.00,meteohub,2013-02-23 09:37:00,
2013-02-23 04:42:00,31.8,27.3,30.38,SE,145,17.0,22.0,83,0.00,,,0.00,meteohub,2013-02-23 09:42:00,
2013-02-23 04:47:00,31.8,27.3,30.38,SSE,162,17.0,26.0,83,0.00,,,0.00,meteohub,2013-02-23 09:47:00,
2013-02-23 04:52:00,31.8,27.3,30.38,South,183,11.0,27.0,83,0.00,,,0.00,meteohub,2013-02-23 09:52:00,
2013-02-23 04:57:00,31.8,27.5,30.38,SSE,159,7.0,27.0,84,0.00,,,0.00,meteohub,2013-02-23 09:57:00,
2013-02-23 05:02:00,31.8,27.5,30.38,South,174,12.0,27.0,84,0.00,,,0.00,meteohub,2013-02-23 10:02:00,
2013-02-23 05:07:00,31.6,27.7,30.38,South,169,16.0,28.0,85,0.00,,,0.00,meteohub,2013-02-23 10:07:00,
2013-02-23 05:12:00,31.6,27.9,30.37,SE,127,19.0,28.0,86,0.00,,,0.00,meteohub,2013-02-23 10:12:00,
2013-02-23 05:17:00,31.6,27.9,30.37,South,171,8.0,27.0,86,0.00,,,0.00,meteohub,2013-02-23 10:17:00,
2013-02-23 05:22:00,31.5,27.7,30.38,SSE,162,11.0,21.0,86,0.00,,,0.00,meteohub,2013-02-23 10:22:00,
2013-02-23 05:27:00,31.6,27.9,30.37,SSE,153,12.0,21.0,86,0.00,,,0.00,meteohub,2013-02-23 10:27:00,
2013-02-23 05:32:00,31.6,27.7,30.38,SE,139,17.0,24.0,85,0.00,,,0.00,meteohub,2013-02-23 10:32:00,
2013-02-23 05:37:00,31.6,27.7,30.38,SE,139,11.0,24.0,85,0.00,,,0.00,meteohub,2013-02-23 10:37:00,
2013-02-23 05:42:00,31.6,27.9,30.38,SSE,160,11.0,24.0,86,0.00,,,0.00,meteohub,2013-02-23 10:42:00,
2013-02-23 05:47:00,31.6,27.9,30.37,SW,218,14.0,24.0,86,0.00,,,0.00,meteohub,2013-02-23 10:47:00,
2013-02-23 05:52:00,31.6,27.9,30.37,SE,143,8.0,22.0,86,0.00,,,0.00,meteohub,2013-02-23 10:52:00,
2013-02-23 05:57:00,31.6,27.9,30.37,SE,138,11.0,22.0,86,0.00,,,0.00,meteohub,2013-02-23 10:57:00,
2013-02-23 06:02:00,31.6,27.9,30.36,SSW,195,12.0,22.0,86,0.00,,,0.00,meteohub,2013-02-23 11:02:00,
2013-02-23 06:07:00,31.8,28.0,30.37,WNW,302,9.0,22.0,86,0.00,,,0.00,meteohub,2013-02-23 11:07:00,
2013-02-23 06:12:00,31.8,28.0,30.37,SSW,195,11.0,24.0,86,0.00,,,0.00,meteohub,2013-02-23 11:12:00,
2013-02-23 06:17:00,31.8,28.0,30.37,SE,131,19.0,24.0,86,0.00,,,0.00,meteohub,2013-02-23 11:17:00,
2013-02-23 06:22:00,32.0,28.2,30.36,SSE,159,14.0,22.0,86,0.00,,,0.00,meteohub,2013-02-23 11:22:00,
2013-02-23 06:27:00,32.0,28.2,30.37,SSE,152,13.0,22.0,86,0.00,,,0.00,meteohub,2013-02-23 11:27:00,
2013-02-23 06:32:00,31.8,28.0,30.36,South,173,15.0,22.0,86,0.00,,,0.00,meteohub,2013-02-23 11:32:00,
2013-02-23 06:37:00,32.0,28.2,30.35,SSE,152,22.0,22.0,86,0.00,,,0.00,meteohub,2013-02-23 11:37:00,
2013-02-23 06:42:00,32.2,28.4,30.35,South,191,11.0,23.0,86,0.00,,,0.00,meteohub,2013-02-23 11:42:00,
2013-02-23 06:47:00,32.2,28.4,30.35,South,174,9.0,23.0,86,0.00,,,0.00,meteohub,2013-02-23 11:47:00,
2013-02-23 06:52:00,32.2,28.8,30.35,NE,53,9.0,23.0,87,0.00,,,0.00,meteohub,2013-02-23 11:52:00,
2013-02-23 06:57:00,32.2,28.8,30.34,East,101,12.0,24.0,87,0.00,,,0.00,meteohub,2013-02-23 11:57:00,
2013-02-23 07:02:00,32.4,28.9,30.35,SSE,150,18.0,24.0,87,0.00,,,0.00,meteohub,2013-02-23 12:02:00,
2013-02-23 07:07:00,32.4,28.9,30.35,SE,139,14.0,20.0,87,0.00,,,0.00,meteohub,2013-02-23 12:07:00,
2013-02-23 07:12:00,32.5,29.1,30.35,South,172,16.0,26.0,87,0.00,,,0.00,meteohub,2013-02-23 12:12:00,
2013-02-23 07:17:00,32.5,29.1,30.35,SSE,149,13.0,26.0,87,0.00,,,0.00,meteohub,2013-02-23 12:17:00,
2013-02-23 07:22:00,32.5,29.1,30.35,SSE,167,12.0,26.0,87,0.00,,,0.00,meteohub,2013-02-23 12:22:00,
2013-02-23 07:27:00,32.5,29.1,30.36,South,186,10.0,29.0,87,0.00,,,0.00,meteohub,2013-02-23 12:27:00,
2013-02-23 07:32:00,32.7,29.3,30.35,SSE,161,14.0,29.0,87,0.00,,,0.00,meteohub,2013-02-23 12:32:00,
2013-02-23 07:37:00,32.7,29.3,30.35,SSE,150,15.0,29.0,87,0.00,,,0.00,meteohub,2013-02-23 12:37:00,
2013-02-23 07:42:00,32.7,29.3,30.35,SSE,152,13.0,24.0,87,0.00,,,0.00,meteohub,2013-02-23 12:42:00,
2013-02-23 07:47:00,32.7,29.5,30.35,SE,131,10.0,24.0,88,0.00,,,0.00,meteohub,2013-02-23 12:47:00,
2013-02-23 07:52:00,32.7,29.5,30.35,SW,228,14.0,25.0,88,0.00,,,0.00,meteohub,2013-02-23 12:52:00,
2013-02-23 07:57:00,32.9,29.7,30.35,SSE,168,14.0,27.0,88,0.00,,,0.00,meteohub,2013-02-23 12:57:00,
2013-02-23 08:02:00,33.1,29.8,30.35,South,181,14.0,27.0,88,0.00,,,0.00,meteohub,2013-02-23 13:02:00,
2013-02-23 08:07:00,33.1,29.8,30.35,SSE,150,11.0,27.0,88,0.00,,,0.00,meteohub,2013-02-23 13:07:00,
2013-02-23 08:12:00,33.1,29.8,30.35,SSW,205,9.0,22.0,88,0.00,,,0.00,meteohub,2013-02-23 13:12:00,
2013-02-23 08:17:00,33.1,29.8,30.35,SE,142,13.0,22.0,88,0.00,,,0.00,meteohub,2013-02-23 13:17:00,
2013-02-23 08:22:00,33.1,29.8,30.35,SSW,207,12.0,22.0,88,0.00,,,0.00,meteohub,2013-02-23 13:22:00,
2013-02-23 08:27:00,33.3,30.0,30.35,SSW,203,13.0,20.0,88,0.00,,,0.00,meteohub,2013-02-23 13:27:00,
2013-02-23 08:32:00,33.3,30.0,30.35,South,184,11.0,21.0,88,0.00,,,0.00,meteohub,2013-02-23 13:32:00,
2013-02-23 08:37:00,33.3,30.0,30.35,SSE,160,15.0,21.0,88,0.00,,,0.00,meteohub,2013-02-23 13:37:00,
2013-02-23 08:42:00,33.4,30.2,30.34,SE,146,11.0,23.0,88,0.00,,,0.00,meteohub,2013-02-23 13:42:00,
2013-02-23 08:47:00,33.4,30.2,30.34,SE,140,9.0,23.0,88,0.00,,,0.00,meteohub,2013-02-23 13:47:00,
2013-02-23 08:52:00,33.6,30.4,30.33,SSW,204,12.0,23.0,88,0.00,,,0.00,meteohub,2013-02-23 13:52:00,
2013-02-23 08:57:00,33.6,30.4,30.33,East,91,21.0,23.0,88,0.00,,,0.00,meteohub,2013-02-23 13:57:00,
2013-02-23 09:02:00,33.8,30.6,30.33,SSE,148,13.0,23.0,88,0.00,,,0.00,meteohub,2013-02-23 14:02:00,
2013-02-23 09:07:00,34.0,30.7,30.33,SSE,165,10.0,24.0,88,0.00,,,0.00,meteohub,2013-02-23 14:07:00,
2013-02-23 09:12:00,34.0,30.6,30.33,South,191,9.0,24.0,87,0.00,,,0.00,meteohub,2013-02-23 14:12:00,
2013-02-23 09:17:00,34.2,30.7,30.33,SSE,161,10.0,20.0,87,0.00,,,0.00,meteohub,2013-02-23 14:17:00,
2013-02-23 09:22:00,34.3,30.9,30.33,SSE,167,11.0,20.0,87,0.00,,,0.00,meteohub,2013-02-23 14:22:00,
2013-02-23 09:27:00,34.5,31.1,30.32,SSW,193,10.0,20.0,87,0.00,,,0.00,meteohub,2013-02-23 14:27:00,
2013-02-23 09:32:00,34.5,31.1,30.32,South,181,8.0,19.0,87,0.00,,,0.00,meteohub,2013-02-23 14:32:00,
2013-02-23 09:37:00,34.5,31.1,30.33,SSW,203,7.0,20.0,87,0.00,,,0.00,meteohub,2013-02-23 14:37:00,
2013-02-23 09:42:00,34.9,31.5,30.32,SSE,160,12.0,21.0,87,0.00,,,0.00,meteohub,2013-02-23 14:42:00,
2013-02-23 09:48:00,34.9,31.5,30.32,South,170,9.0,21.0,87,0.00,,,0.00,meteohub,2013-02-23 14:48:00,
2013-02-23 09:53:00,34.9,31.5,30.31,ESE,119,15.0,20.0,87,0.00,,,0.00,meteohub,2013-02-23 14:53:00,
2013-02-23 09:58:00,34.9,31.5,30.30,SSW,200,10.0,20.0,87,0.00,,,0.00,meteohub,2013-02-23 14:58:00,
2013-02-23 10:03:00,34.9,31.5,30.30,South,174,17.0,22.0,87,0.00,,,0.00,meteohub,2013-02-23 15:03:00,
2013-02-23 10:08:00,35.1,31.6,30.30,East,85,23.0,23.0,87,0.00,,,0.00,meteohub,2013-02-23 15:08:00,
2013-02-23 10:13:00,35.2,31.8,30.30,South,191,12.0,23.0,87,0.00,,,0.00,meteohub,2013-02-23 15:13:00,
2013-02-23 10:18:00,35.2,31.5,30.30,South,173,13.0,23.0,86,0.00,,,0.00,meteohub,2013-02-23 15:18:00,
2013-02-23 10:23:00,35.4,31.6,30.29,South,177,11.0,23.0,86,0.00,,,0.00,meteohub,2013-02-23 15:23:00,
2013-02-23 10:28:00,35.6,31.8,30.28,SE,131,12.0,22.0,86,0.00,,,0.00,meteohub,2013-02-23 15:28:00,
2013-02-23 10:34:00,35.8,32.0,30.29,South,179,16.0,24.0,86,0.00,,,0.00,meteohub,2013-02-23 15:34:00,
2013-02-23 10:39:00,35.8,32.0,30.29,SSW,200,10.0,24.0,86,0.00,,,0.00,meteohub,2013-02-23 15:39:00,
2013-02-23 10:44:00,35.8,32.0,30.29,SSE,162,18.0,24.0,86,0.00,,,0.00,meteohub,2013-02-23 15:44:00,
2013-02-23 10:49:00,35.8,32.0,30.29,South,175,20.0,23.0,86,0.00,,,0.00,meteohub,2013-02-23 15:49:00,
2013-02-23 10:54:00,35.8,32.0,30.29,South,180,19.0,23.0,86,0.00,,,0.00,meteohub,2013-02-23 15:54:00,
2013-02-23 10:59:00,36.0,32.2,30.29,SSW,204,9.0,23.0,86,0.00,,,0.00,meteohub,2013-02-23 15:59:00,
2013-02-23 11:04:00,36.0,32.2,30.29,SE,127,16.0,23.0,86,0.00,,,0.00,meteohub,2013-02-23 16:04:00,
2013-02-23 11:09:00,36.1,32.4,30.29,SSE,157,8.0,22.0,86,0.00,,,0.00,meteohub,2013-02-23 16:09:00,
2013-02-23 11:14:00,36.3,32.2,30.30,SSE,152,10.0,22.0,85,0.00,,,0.00,meteohub,2013-02-23 16:14:00,
2013-02-23 11:19:00,36.3,32.2,30.30,South,177,11.0,22.0,85,0.00,,,0.00,meteohub,2013-02-23 16:19:00,
2013-02-23 11:25:00,36.3,32.5,30.30,SSW,203,9.0,21.0,86,0.00,,,0.00,meteohub,2013-02-23 16:25:00,
2013-02-23 11:30:00,36.3,32.5,30.30,SSW,198,9.0,20.0,86,0.00,,,0.00,meteohub,2013-02-23 16:30:00,
2013-02-23 11:35:00,36.3,32.9,30.30,SSE,150,9.0,20.0,87,0.00,,,0.00,meteohub,2013-02-23 16:35:00,
2013-02-23 11:40:00,36.1,32.9,30.30,SSW,205,10.0,16.0,88,0.00,,,0.00,meteohub,2013-02-23 16:40:00,
2013-02-23 11:45:00,36.0,33.1,30.29,SSW,203,8.0,16.0,89,0.00,,,0.00,meteohub,2013-02-23 16:45:00,
2013-02-23 11:50:00,36.0,33.1,30.29,SSW,205,8.0,15.0,89,0.00,,,0.00,meteohub,2013-02-23 16:50:00,
2013-02-23 11:55:00,36.0,33.1,30.29,SSW,197,7.0,14.0,89,0.00,,,0.00,meteohub,2013-02-23 16:55:00,
2013-02-23 12:00:00,36.0,33.1,30.30,South,181,7.0,15.0,89,0.00,,,0.00,meteohub,2013-02-23 17:00:00,
2013-02-23 12:05:00,36.0,33.1,30.30,SW,224,9.0,15.0,89,0.00,,,0.00,meteohub,2013-02-23 17:05:00,
2013-02-23 12:10:00,35.8,32.9,30.30,SSW,200,5.0,15.0,89,0.00,,,0.00,meteohub,2013-02-23 17:10:00,
2013-02-23 12:16:00,35.4,32.7,30.29,SSW,195,5.0,12.0,90,0.00,,,0.00,meteohub,2013-02-23 17:16:00,
2013-02-23 12:21:00,35.2,32.5,30.29,SSW,212,10.0,12.0,90,0.00,,,0.00,meteohub,2013-02-23 17:21:00,
2013-02-23 12:26:00,35.4,33.1,30.28,South,191,7.0,11.0,91,0.01,,,0.00,meteohub,2013-02-23 17:26:00,
2013-02-23 12:31:00,35.4,33.1,30.28,South,172,7.0,11.0,91,0.01,,,0.01,meteohub,2013-02-23 17:31:00,
2013-02-23 12:36:00,35.2,32.9,30.28,SSE,165,9.0,12.0,91,0.01,,,0.01,meteohub,2013-02-23 17:36:00,
2013-02-23 12:41:00,35.2,33.1,30.28,South,188,6.0,12.0,92,0.01,,,0.01,meteohub,2013-02-23 17:41:00,
2013-02-23 12:46:00,35.2,33.1,30.27,SSW,194,7.0,12.0,92,0.01,,,0.01,meteohub,2013-02-23 17:46:00,
2013-02-23 12:51:00,35.4,33.3,30.27,South,176,8.0,12.0,92,0.01,,,0.01,meteohub,2013-02-23 17:51:00,
2013-02-23 12:56:00,35.4,33.3,30.27,South,170,9.0,12.0,92,0.01,,,0.01,meteohub,2013-02-23 17:56:00,
2013-02-23 13:01:00,35.8,33.6,30.27,South,172,6.0,14.0,92,0.01,,,0.01,meteohub,2013-02-23 18:01:00,
2013-02-23 13:07:00,35.8,33.6,30.26,SSW,194,8.0,14.0,92,0.01,,,0.01,meteohub,2013-02-23 18:07:00,
2013-02-23 13:12:00,36.0,33.8,30.26,South,179,8.0,14.0,92,0.01,,,0.01,meteohub,2013-02-23 18:12:00,
2013-02-23 13:17:00,36.1,34.0,30.26,SW,224,8.0,12.0,92,0.01,,,0.01,meteohub,2013-02-23 18:17:00,
2013-02-23 13:22:00,36.3,34.2,30.25,SSE,163,9.0,12.0,92,0.01,,,0.01,meteohub,2013-02-23 18:22:00,
2013-02-23 13:27:00,36.5,34.3,30.25,SSW,197,9.0,12.0,92,0.00,,,0.01,meteohub,2013-02-23 18:27:00,
2013-02-23 13:32:00,36.7,34.5,30.25,SSE,153,9.0,13.0,92,0.00,,,0.01,meteohub,2013-02-23 18:32:00,
2013-02-23 13:37:00,36.9,34.7,30.25,SSW,204,8.0,14.0,92,0.00,,,0.01,meteohub,2013-02-23 18:37:00,
2013-02-23 13:42:00,36.9,34.7,30.25,SSW,193,8.0,14.0,92,0.00,,,0.01,meteohub,2013-02-23 18:42:00,
2013-02-23 13:47:00,36.9,34.7,30.25,East,101,11.0,16.0,92,0.00,,,0.01,meteohub,2013-02-23 18:47:00,
2013-02-23 13:52:00,36.7,34.5,30.25,SSW,208,8.0,16.0,92,0.00,,,0.01,meteohub,2013-02-23 18:52:00,
2013-02-23 13:57:00,36.7,34.5,30.24,SW,214,8.0,16.0,92,0.00,,,0.01,meteohub,2013-02-23 18:57:00,
2013-02-23 14:02:00,36.5,34.3,30.25,SSW,203,7.0,14.0,92,0.00,,,0.01,meteohub,2013-02-23 19:02:00,
2013-02-23 14:08:00,36.5,34.3,30.25,South,174,6.0,14.0,92,0.00,,,0.01,meteohub,2013-02-23 19:08:00,
2013-02-23 14:13:00,36.5,34.3,30.24,South,190,9.0,12.0,92,0.00,,,0.01,meteohub,2013-02-23 19:13:00,
2013-02-23 14:18:00,36.3,34.2,30.24,SSW,212,9.0,12.0,92,0.00,,,0.01,meteohub,2013-02-23 19:18:00,
2013-02-23 14:23:00,36.3,34.2,30.24,South,186,10.0,12.0,92,0.00,,,0.01,meteohub,2013-02-23 19:23:00,
2013-02-23 14:28:00,36.3,34.2,30.24,South,179,9.0,12.0,92,0.00,,,0.01,meteohub,2013-02-23 19:28:00,
2013-02-23 14:33:00,36.3,34.2,30.23,SSW,210,9.0,12.0,92,0.00,,,0.01,meteohub,2013-02-23 19:33:00,
2013-02-23 14:38:00,36.5,34.3,30.23,SE,136,9.0,11.0,92,0.00,,,0.01,meteohub,2013-02-23 19:38:00,
2013-02-23 14:43:00,36.5,34.3,30.23,SSW,200,4.0,11.0,92,0.00,,,0.01,meteohub,2013-02-23 19:43:00,
2013-02-23 14:48:00,36.5,34.3,30.23,WSW,238,4.0,11.0,92,0.00,,,0.01,meteohub,2013-02-23 19:48:00,
2013-02-23 14:53:00,36.5,34.3,30.23,SSW,200,6.0,10.0,92,0.00,,,0.01,meteohub,2013-02-23 19:53:00,
2013-02-23 14:59:00,36.5,34.3,30.23,SSW,205,5.0,9.0,92,0.00,,,0.01,meteohub,2013-02-23 19:59:00,
2013-02-23 15:04:00,36.5,34.3,30.23,SSW,210,7.0,9.0,92,0.00,,,0.01,meteohub,2013-02-23 20:04:00,
2013-02-23 15:09:00,36.5,34.7,30.23,SW,215,7.0,9.0,93,0.00,,,0.01,meteohub,2013-02-23 20:09:00,
2013-02-23 15:14:00,36.5,34.7,30.23,SSW,194,5.0,9.0,93,0.00,,,0.01,meteohub,2013-02-23 20:14:00,
2013-02-23 15:19:00,36.5,34.7,30.24,South,180,6.0,11.0,93,0.00,,,0.01,meteohub,2013-02-23 20:19:00,
2013-02-23 15:24:00,36.5,34.7,30.23,SSW,194,8.0,11.0,93,0.00,,,0.01,meteohub,2013-02-23 20:24:00,
2013-02-23 15:29:00,36.5,34.7,30.23,SSW,203,7.0,11.0,93,0.00,,,0.01,meteohub,2013-02-23 20:29:00,
2013-02-23 15:34:00,36.5,34.7,30.23,SSW,200,5.0,10.0,93,0.00,,,0.01,meteohub,2013-02-23 20:34:00,
2013-02-23 15:39:00,36.3,34.5,30.23,SSW,212,4.0,10.0,93,0.00,,,0.01,meteohub,2013-02-23 20:39:00,
2013-02-23 15:44:00,36.3,34.5,30.23,SSW,212,4.0,8.0,93,0.00,,,0.01,meteohub,2013-02-23 20:44:00,
2013-02-23 15:50:00,36.3,34.5,30.22,South,170,5.0,8.0,93,0.00,,,0.01,meteohub,2013-02-23 20:50:00,
2013-02-23 15:55:00,36.3,34.5,30.22,SSW,205,4.0,7.0,93,0.00,,,0.01,meteohub,2013-02-23 20:55:00,
2013-02-23 16:00:00,36.3,34.7,30.22,SSW,195,3.0,7.0,94,0.00,,,0.01,meteohub,2013-02-23 21:00:00,
2013-02-23 16:05:00,36.3,34.7,30.22,SSW,194,4.0,7.0,94,0.00,,,0.01,meteohub,2013-02-23 21:05:00,
2013-02-23 16:10:00,36.3,34.7,30.22,South,180,4.0,6.0,94,0.00,,,0.01,meteohub,2013-02-23 21:10:00,
2013-02-23 16:15:00,36.3,34.7,30.22,SSE,163,5.0,6.0,94,0.00,,,0.01,meteohub,2013-02-23 21:15:00,
2013-02-23 16:20:00,36.5,34.9,30.22,SSE,160,4.0,6.0,94,0.00,,,0.01,meteohub,2013-02-23 21:20:00,
2013-02-23 16:25:00,36.5,34.9,30.22,South,187,4.0,6.0,94,0.00,,,0.01,meteohub,2013-02-23 21:25:00,
2013-02-23 16:30:00,36.5,34.9,30.22,SSW,195,6.0,8.0,94,0.00,,,0.01,meteohub,2013-02-23 21:30:00,
2013-02-23 16:35:00,36.7,35.1,30.22,SE,143,6.0,8.0,94,0.00,,,0.01,meteohub,2013-02-23 21:35:00,
2013-02-23 16:40:00,36.7,35.1,30.22,SSW,205,5.0,8.0,94,0.00,,,0.01,meteohub,2013-02-23 21:40:00,
2013-02-23 16:46:00,36.7,35.1,30.21,SW,218,5.0,8.0,94,0.00,,,0.01,meteohub,2013-02-23 21:46:00,
2013-02-23 16:51:00,36.7,35.1,30.22,SSW,208,4.0,8.0,94,0.00,,,0.01,meteohub,2013-02-23 21:51:00,
2013-02-23 16:56:00,36.7,35.1,30.21,SW,217,5.0,8.0,94,0.00,,,0.01,meteohub,2013-02-23 21:56:00,
2013-02-23 17:01:00,36.9,35.1,30.21,SSW,197,3.0,8.0,93,0.00,,,0.01,meteohub,2013-02-23 22:01:00,
2013-02-23 17:06:00,36.9,35.1,30.21,SSW,203,3.0,8.0,93,0.00,,,0.01,meteohub,2013-02-23 22:06:00,
2013-02-23 17:11:00,36.9,35.1,30.21,SW,214,3.0,7.0,93,0.00,,,0.01,meteohub,2013-02-23 22:11:00,
2013-02-23 17:16:00,36.9,35.1,30.22,SSW,210,5.0,7.0,93,0.00,,,0.01,meteohub,2013-02-23 22:16:00,
2013-02-23 17:21:00,36.9,35.1,30.22,SSW,201,2.0,7.0,93,0.00,,,0.01,meteohub,2013-02-23 22:21:00,
2013-02-23 17:26:00,36.7,34.9,30.22,SSW,200,3.0,6.0,93,0.00,,,0.01,meteohub,2013-02-23 22:26:00,
2013-02-23 17:31:00,36.7,34.9,30.22,SW,235,4.0,6.0,93,0.00,,,0.01,meteohub,2013-02-23 22:31:00,
2013-02-23 17:37:00,36.7,34.9,30.22,WSW,238,4.0,5.0,93,0.00,,,0.01,meteohub,2013-02-23 22:37:00,
2013-02-23 17:42:00,36.9,35.1,30.22,SW,214,4.0,6.0,93,0.00,,,0.01,meteohub,2013-02-23 22:42:00,
2013-02-23 17:47:00,36.9,35.1,30.21,SW,224,5.0,7.0,93,0.00,,,0.01,meteohub,2013-02-23 22:47:00,
2013-02-23 17:52:00,36.9,35.1,30.21,SSW,207,3.0,7.0,93,0.00,,,0.01,meteohub,2013-02-23 22:52:00,
2013-02-23 17:57:00,36.9,35.1,30.21,SSW,210,4.0,7.0,93,0.00,,,0.01,meteohub,2013-02-23 22:57:00,
2013-02-23 18:02:00,36.9,35.1,30.21,SSW,203,3.0,6.0,93,0.00,,,0.01,meteohub,2013-02-23 23:02:00,
2013-02-23 18:07:00,36.9,35.1,30.22,SSW,193,3.0,5.0,93,0.00,,,0.01,meteohub,2013-02-23 23:07:00,
2013-02-23 18:12:00,36.9,35.1,30.22,SSW,200,2.0,5.0,93,0.00,,,0.01,meteohub,2013-02-23 23:12:00,
2013-02-23 18:17:00,36.7,34.9,30.22,South,190,3.0,5.0,93,0.00,,,0.01,meteohub,2013-02-23 23:17:00,
2013-02-23 18:22:00,36.7,34.9,30.22,SW,215,4.0,5.0,93,0.00,,,0.01,meteohub,2013-02-23 23:22:00,
2013-02-23 18:27:00,36.7,34.9,30.22,SSW,212,4.0,6.0,93,0.00,,,0.01,meteohub,2013-02-23 23:27:00,
2013-02-23 18:32:00,36.7,34.9,30.22,SSW,209,6.0,6.0,93,0.00,,,0.01,meteohub,2013-02-23 23:32:00,
2013-02-23 18:37:00,36.7,34.9,30.22,SSW,212,5.0,7.0,93,0.00,,,0.01,meteohub,2013-02-23 23:37:00,
2013-02-23 18:42:00,36.7,34.9,30.22,SW,217,5.0,7.0,93,0.00,,,0.01,meteohub,2013-02-23 23:42:00,
2013-02-23 18:47:00,36.9,35.1,30.22,SSW,208,5.0,7.0,93,0.00,,,0.01,meteohub,2013-02-23 23:47:00,
2013-02-23 18:52:00,36.9,35.1,30.22,SSW,203,6.0,7.0,93,0.00,,,0.01,meteohub,2013-02-23 23:52:00,
2013-02-23 18:57:00,36.9,35.1,30.22,SW,225,5.0,7.0,93,0.00,,,0.01,meteohub,2013-02-23 23:57:00,
2013-02-23 19:02:00,36.7,34.9,30.22,SW,214,4.0,8.0,93,0.00,,,0.01,meteohub,2013-02-24 00:02:00,
2013-02-23 19:07:00,36.7,34.9,30.22,SW,229,4.0,8.0,93,0.00,,,0.01,meteohub,2013-02-24 00:07:00,
2013-02-23 19:12:00,36.7,34.9,30.21,WSW,240,4.0,8.0,93,0.00,,,0.01,meteohub,2013-02-24 00:12:00,
2013-02-23 19:17:00,36.7,34.9,30.22,SSW,212,4.0,7.0,93,0.00,,,0.01,meteohub,2013-02-24 00:17:00,
2013-02-23 19:22:00,36.7,34.9,30.22,SW,225,4.0,7.0,93,0.00,,,0.01,meteohub,2013-02-24 00:22:00,
2013-02-23 19:27:00,36.7,34.9,30.22,SW,225,4.0,6.0,93,0.00,,,0.01,meteohub,2013-02-24 00:27:00,
2013-02-23 19:32:00,36.7,34.9,30.22,WSW,238,4.0,6.0,93,0.00,,,0.01,meteohub,2013-02-24 00:32:00,
2013-02-23 19:37:00,36.7,34.9,30.23,SW,224,3.0,6.0,93,0.00,,,0.01,meteohub,2013-02-24 00:37:00,
2013-02-23 19:42:00,36.7,34.9,30.23,WSW,249,4.0,6.0,93,0.00,,,0.01,meteohub,2013-02-24 00:42:00,
2013-02-23 19:47:00,36.7,34.9,30.23,SW,217,4.0,7.0,93,0.00,,,0.01,meteohub,2013-02-24 00:47:00,
2013-02-23 19:52:00,36.7,34.9,30.23,SW,215,6.0,7.0,93,0.00,,,0.01,meteohub,2013-02-24 00:52:00,
2013-02-23 19:57:00,36.7,34.9,30.22,SSW,212,4.0,7.0,93,0.00,,,0.01,meteohub,2013-02-24 00:57:00,
2013-02-23 20:02:00,36.7,34.9,30.22,SW,219,3.0,7.0,93,0.00,,,0.01,meteohub,2013-02-24 01:02:00,
2013-02-23 20:07:00,36.5,34.7,30.22,South,187,3.0,7.0,93,0.00,,,0.01,meteohub,2013-02-24 01:07:00,
2013-02-23 20:12:00,36.5,34.7,30.22,SW,228,3.0,6.0,93,0.00,,,0.01,meteohub,2013-02-24 01:12:00,
2013-02-23 20:17:00,36.5,34.7,30.22,SSW,210,3.0,5.0,93,0.00,,,0.01,meteohub,2013-02-24 01:17:00,
2013-02-23 20:22:00,36.3,34.5,30.21,SSW,210,4.0,5.0,93,0.00,,,0.01,meteohub,2013-02-24 01:22:00,
2013-02-23 20:27:00,36.3,34.5,30.21,SSW,212,4.0,5.0,93,0.00,,,0.01,meteohub,2013-02-24 01:27:00,
2013-02-23 20:32:00,36.3,34.5,30.21,WSW,250,3.0,5.0,93,0.00,,,0.01,meteohub,2013-02-24 01:32:00,
2013-02-23 20:37:00,36.3,34.5,30.22,SW,225,4.0,5.0,93,0.00,,,0.01,meteohub,2013-02-24 01:37:00,
2013-02-23 20:42:00,36.1,34.3,30.22,WSW,248,2.0,5.0,93,0.00,,,0.01,meteohub,2013-02-24 01:42:00,
2013-02-23 20:47:00,36.1,34.3,30.21,WSW,253,1.0,5.0,93,0.00,,,0.01,meteohub,2013-02-24 01:47:00,
2013-02-23 20:52:00,36.1,34.3,30.22,SW,221,3.0,5.0,93,0.00,,,0.01,meteohub,2013-02-24 01:52:00,
2013-02-23 20:57:00,36.0,34.2,30.21,SW,221,2.0,5.0,93,0.00,,,0.01,meteohub,2013-02-24 01:57:00,
2013-02-23 21:02:00,36.0,34.2,30.21,SSW,212,4.0,5.0,93,0.00,,,0.01,meteohub,2013-02-24 02:02:00,
2013-02-23 21:07:00,36.0,34.2,30.21,SSW,200,2.0,5.0,93,0.00,,,0.01,meteohub,2013-02-24 02:07:00,
2013-02-23 21:12:00,36.0,34.2,30.21,SSW,212,4.0,5.0,93,0.00,,,0.01,meteohub,2013-02-24 02:12:00,
2013-02-23 21:17:00,36.0,34.3,30.22,SW,230,3.0,5.0,94,0.00,,,0.01,meteohub,2013-02-24 02:17:00,
2013-02-23 21:22:00,36.0,34.3,30.21,West,261,2.0,5.0,94,0.00,,,0.01,meteohub,2013-02-24 02:22:00,
2013-02-23 21:27:00,36.0,34.2,30.21,WSW,256,1.0,5.0,93,0.00,,,0.01,meteohub,2013-02-24 02:27:00,
2013-02-23 21:32:00,36.0,34.2,30.21,WSW,257,0.0,4.0,93,0.00,,,0.01,meteohub,2013-02-24 02:32:00,
2013-02-23 21:37:00,36.0,34.2,30.21,WSW,253,0.0,3.0,93,0.00,,,0.01,meteohub,2013-02-24 02:37:00,
2013-02-23 21:42:00,36.0,34.2,30.21,SW,235,2.0,2.0,93,0.00,,,0.01,meteohub,2013-02-24 02:42:00,
2013-02-23 21:47:00,36.0,34.2,30.21,WSW,245,0.0,2.0,93,0.00,,,0.01,meteohub,2013-02-24 02:47:00,
2013-02-23 21:52:00,35.8,34.0,30.20,WSW,245,0.0,2.0,93,0.00,,,0.01,meteohub,2013-02-24 02:52:00,
2013-02-23 21:57:00,35.6,33.8,30.20,WSW,245,0.0,2.0,93,0.00,,,0.01,meteohub,2013-02-24 02:57:00,
2013-02-23 22:02:00,35.4,33.6,30.20,WSW,245,0.0,1.0,93,0.00,,,0.01,meteohub,2013-02-24 03:02:00,
2013-02-23 22:07:00,35.6,33.8,30.20,WSW,253,0.0,0.0,93,0.00,,,0.01,meteohub,2013-02-24 03:07:00,
2013-02-23 22:12:00,35.6,33.8,30.20,WSW,250,0.0,0.0,93,0.00,,,0.01,meteohub,2013-02-24 03:12:00,
2013-02-23 22:17:00,35.6,33.8,30.19,WSW,250,0.0,0.0,93,0.00,,,0.01,meteohub,2013-02-24 03:17:00,
2013-02-23 22:22:00,35.2,33.4,30.19,WSW,250,0.0,0.0,93,0.00,,,0.01,meteohub,2013-02-24 03:22:00,
2013-02-23 22:27:00,34.9,32.7,30.19,WSW,250,0.0,0.0,92,0.00,,,0.01,meteohub,2013-02-24 03:27:00,
2013-02-23 22:32:00,34.7,32.9,30.19,WSW,250,0.0,0.0,93,0.00,,,0.01,meteohub,2013-02-24 03:32:00,
2013-02-23 22:37:00,34.5,32.7,30.19,SSW,197,0.0,0.0,93,0.00,,,0.01,meteohub,2013-02-24 03:37:00,
2013-02-23 22:42:00,34.3,32.5,30.19,WSW,240,0.0,0.0,93,0.00,,,0.01,meteohub,2013-02-24 03:42:00,
2013-02-23 22:47:00,34.3,32.5,30.19,SW,231,0.0,2.0,93,0.00,,,0.01,meteohub,2013-02-24 03:47:00,
2013-02-23 22:52:00,34.3,32.5,30.19,SW,227,0.0,2.0,93,0.00,,,0.01,meteohub,2013-02-24 03:52:00,
2013-02-23 22:57:00,34.3,32.5,30.19,SW,226,0.0,2.0,93,0.00,,,0.01,meteohub,2013-02-24 03:57:00,
2013-02-23 23:02:00,34.3,32.7,30.18,West,273,0.0,0.0,94,0.00,,,0.01,meteohub,2013-02-24 04:02:00,
2013-02-23 23:07:00,34.0,32.2,30.19,North,1,6.0,0.0,93,0.00,,,0.01,meteohub,2013-02-24 04:07:00,
2013-02-23 23:12:00,33.3,31.5,30.19,North,9,9.0,9.0,93,0.00,,,0.01,meteohub,2013-02-24 04:12:00,
2013-02-23 23:17:00,32.7,30.9,30.19,NNE,25,6.0,10.0,93,0.00,,,0.01,meteohub,2013-02-24 04:17:00,
2013-02-23 23:22:00,32.4,30.6,30.19,NNW,336,4.0,11.0,93,0.00,,,0.01,meteohub,2013-02-24 04:22:00,
2013-02-23 23:27:00,32.0,30.2,30.19,North,9,7.0,11.0,93,0.00,,,0.01,meteohub,2013-02-24 04:27:00,
2013-02-23 23:32:00,31.6,29.8,30.19,NNE,19,6.0,11.0,93,0.00,,,0.01,meteohub,2013-02-24 04:32:00,
2013-02-23 23:37:00,31.5,29.7,30.19,NNW,343,9.0,10.0,93,0.00,,,0.01,meteohub,2013-02-24 04:37:00,
2013-02-23 23:42:00,31.3,29.5,30.19,North,349,5.0,11.0,93,0.00,,,0.01,meteohub,2013-02-24 04:42:00,
2013-02-23 23:47:00,30.9,29.1,30.19,NNE,14,7.0,11.0,93,0.00,,,0.01,meteohub,2013-02-24 04:47:00,
2013-02-23 23:52:00,30.9,29.1,30.19,NNW,334,4.0,11.0,93,0.00,,,0.01,meteohub,2013-02-24 04:52:00,
2013-02-23 23:57:00,30.7,28.9,30.19,North,357,8.0,10.0,93,0.00,,,0.01,meteohub,2013-02-24 04:57:00,